IU7LMH-13 Weather Reports


Display with metric or nautical units.
time (UTC)temp
F
wind
direction
speed
MPH
gust
MPH
rain 1hr
in
rain 24hr
in
rain mn
in
humidity
%
barometer
mb
20260831030641 76 292 0.0 0.0 0.00 0.00 0.00 76 1013.9
20260831030242 76 292 0.0 0.0 0.00 0.00 0.00 76 1013.8
20260831030051 76 292 0.0 0.0 0.00 0.00 0.00 76 1013.8
20260831025642 76 270 0.0 0.0 0.00 0.00 0.00 76 1013.8
20260831025442 76 270 0.0 0.0 0.00 0.00 0.00 75 1013.8
20260831025243 76 270 0.0 0.0 0.00 0.00 0.00 75 1013.8
20260831025047 76 270 1.0 2.0 0.00 0.00 0.00 75 1013.7
20260831024050 76 292 1.0 2.0 0.00 0.00 0.00 76 1013.7
20260831023842 76 292 0.0 0.0 0.00 0.00 0.00 76 1013.8
20260831023641 76 292 0.0 0.0 0.00 0.00 0.00 76 1013.6
20260831023242 76 292 0.0 0.0 0.00 0.00 0.00 76 1013.7
20260831022842 77 292 0.0 0.0 0.00 0.00 0.00 76 1013.8
20260831022643 77 292 0.0 0.0 0.00 0.00 0.00 75 1013.8
20260831022443 77 292 0.0 0.0 0.00 0.00 0.00 75 1013.8
20260831022241 77 315 0.0 0.0 0.00 0.00 0.00 75 1013.9
20260831022047 77 315 0.0 0.0 0.00 0.00 0.00 75 1013.9
20260831021843 77 315 0.0 0.0 0.00 0.00 0.00 75 1013.8
20260831021642 77 338 0.0 2.0 0.00 0.00 0.00 75 1013.8
20260831021443 77 0 1.0 2.0 0.00 0.00 0.00 75 1013.9
20260831021053 77 22 0.0 0.0 0.00 0.00 0.00 75 1013.7
20260831020844 77 315 0.0 0.0 0.00 0.00 0.00 75 1013.7
20260831020642 77 338 0.0 0.0 0.00 0.00 0.00 75 1013.8
20260831020444 77 315 0.0 0.0 0.00 0.00 0.00 75 1013.6
20260831020243 77 315 0.0 0.0 0.00 0.00 0.00 75 1013.7
20260831020055 77 315 0.0 0.0 0.00 0.00 0.00 75 1013.9
20260831015842 77 315 0.0 2.0 0.00 0.00 0.00 75 1013.6
20260831015644 77 315 1.0 2.0 0.00 0.00 0.00 75 1013.6
20260831015241 77 338 0.0 2.0 0.00 0.00 0.00 74 1013.7
20260831014842 77 338 0.0 0.0 0.00 0.00 0.00 74 1013.7
20260831014641 77 338 0.0 0.0 0.00 0.00 0.00 74 1013.6
20260831014241 77 315 0.0 0.0 0.00 0.00 0.00 73 1013.8
20260831014049 78 0 1.0 2.0 0.00 0.00 0.00 73 1013.7
20260831013642 78 338 0.0 0.0 0.00 0.00 0.00 73 1013.7
20260831013442 78 315 0.0 0.0 0.00 0.00 0.00 73 1013.6
20260831013050 78 0 0.0 0.0 0.00 0.00 0.00 72 1013.8
20260831012642 78 0 0.0 0.0 0.00 0.00 0.00 72 1013.5
20260831012442 78 315 0.0 0.0 0.00 0.00 0.00 72 1013.7
20260831012241 78 315 0.0 0.0 0.00 0.00 0.00 72 1013.5
20260831012046 78 315 0.0 0.0 0.00 0.00 0.00 72 1013.6
20260831011843 78 315 0.0 0.0 0.00 0.00 0.00 72 1013.5
20260831011643 78 0 0.0 0.0 0.00 0.00 0.00 72 1013.5
20260831011442 78 315 0.0 0.0 0.00 0.00 0.00 71 1013.3
20260831011243 78 0 0.0 0.0 0.00 0.00 0.00 71 1013.4
20260831011052 78 0 0.0 0.0 0.00 0.00 0.00 71 1013.5
20260831010841 79 315 1.0 2.0 0.00 0.00 0.00 71 1013.7
20260831010444 79 338 0.0 2.0 0.00 0.00 0.00 70 1013.3
20260831010242 79 315 0.0 2.0 0.00 0.00 0.00 69 1013.5
20260831010050 79 315 0.0 0.0 0.00 0.00 0.00 69 1013.5
20260831005842 79 315 0.0 0.0 0.00 0.00 0.00 69 1013.4
20260831005643 80 315 0.0 0.0 0.00 0.00 0.00 69 1013.6
20260831005240 80 338 0.0 0.0 0.00 0.00 0.00 68 1013.4
20260831005046 80 248 0.0 0.0 0.00 0.00 0.00 68 1013.3
20260831004641 80 248 0.0 0.0 0.00 0.00 0.00 67 1013.3
20260831004443 80 248 0.0 0.0 0.00 0.00 0.00 67 1013.4
20260831004242 80 248 0.0 0.0 0.00 0.00 0.00 67 1013.3
20260831004051 80 270 0.0 0.0 0.00 0.00 0.00 67 1013.3
20260831003843 80 270 0.0 0.0 0.00 0.00 0.00 66 1013.3
20260831003641 80 270 0.0 0.0 0.00 0.00 0.00 67 1013.3
20260831003444 80 292 0.0 0.0 0.00 0.00 0.00 67 1013.4
20260831003243 80 270 1.0 2.0 0.00 0.00 0.00 67 1013.2
20260831003052 80 292 0.0 0.0 0.00 0.00 0.00 66 1013.1
20260831002441 80 315 0.0 0.0 0.00 0.00 0.00 67 1013.2
20260831002242 80 338 0.0 2.0 0.00 0.00 0.00 68 1013.1
20260831001442 80 22 0.0 0.0 0.00 0.00 0.00 68 1013.3
20260831001243 80 22 0.0 0.0 0.00 0.00 0.00 68 1013.2
20260831001052 80 90 1.0 2.0 0.00 0.00 0.00 68 1013.2
20260831000841 80 45 2.0 2.0 0.00 0.00 0.00 67 1013.3
20260831000642 80 45 2.0 2.0 0.00 0.00 0.00 67 1013.3
20260831000444 80 45 2.0 2.0 0.00 0.00 0.00 67 1013.2
20260831000053 80 90 2.0 2.0 0.00 0.00 0.00 67 1013.3
20260830235842 80 68 1.0 2.0 0.00 0.00 0.00 67 1013.2
20260830235642 80 68 1.0 2.0 0.00 0.00 0.00 67 1013.2
20260830235443 80 90 1.0 2.0 0.00 0.00 0.00 67 1013.3
20260830235241 80 68 2.0 2.0 0.00 0.00 0.00 67 1013.2
20260830235047 80 68 2.0 2.0 0.00 0.00 0.00 67 1013.3
20260830234841 80 68 1.0 2.0 0.00 0.00 0.00 67 1013.4
20260830234243 80 90 0.0 0.0 0.00 0.00 0.00 66 1013.2
20260830234051 81 68 0.0 0.0 0.00 0.00 0.00 66 1013.1
20260830233641 81 0 0.0 0.0 0.00 0.00 0.00 65 1013.1
20260830233444 81 0 0.0 0.0 0.00 0.00 0.00 65 1013.3
20260830233242 81 292 0.0 0.0 0.00 0.00 0.00 64 1013.0
20260830233049 81 292 0.0 0.0 0.00 0.00 0.00 64 1013.3
20260830232842 81 315 0.0 0.0 0.00 0.00 0.00 64 1013.2
20260830232643 81 315 1.0 2.0 0.00 0.00 0.00 64 1013.1
20260830232446 81 315 0.0 2.0 0.00 0.00 0.00 64 1013.3
20260830231842 82 292 0.0 0.0 0.00 0.00 0.00 64 1013.1
20260830231642 82 315 1.0 2.0 0.00 0.00 0.00 63 1013.2
20260830231442 82 315 2.0 2.0 0.00 0.00 0.00 63 1013.3
20260830231048 82 315 1.0 2.0 0.00 0.00 0.00 63 1013.1
20260830230841 82 315 2.0 2.0 0.00 0.00 0.00 63 1013.0
20260830230642 82 292 2.0 2.0 0.00 0.00 0.00 63 1013.2
20260830230444 82 292 2.0 2.0 0.00 0.00 0.00 62 1013.0
20260830230050 82 292 2.0 4.0 0.00 0.00 0.00 62 1013.0
20260830225842 82 292 2.0 2.0 0.00 0.00 0.00 62 1013.1
20260830225643 82 292 1.0 2.0 0.00 0.00 0.00 62 1013.1
20260830225442 83 315 2.0 2.0 0.00 0.00 0.00 62 1013.4
20260830225047 83 292 1.0 2.0 0.00 0.00 0.00 61 1013.2
20260830224642 84 315 1.0 2.0 0.00 0.00 0.00 61 1013.2
20260830224441 84 45 0.0 2.0 0.00 0.00 0.00 61 1013.3
20260830224242 84 315 2.0 2.0 0.00 0.00 0.00 61 1013.3
20260830224052 84 292 1.0 2.0 0.00 0.00 0.00 60 1013.1
20260830223842 84 292 1.0 2.0 0.00 0.00 0.00 60 1013.2
20260830223642 84 292 2.0 4.0 0.00 0.00 0.00 60 1013.1
20260830223443 85 292 2.0 4.0 0.00 0.00 0.00 60 1013.2
20260830223241 85 270 3.0 4.0 0.00 0.00 0.00 59 1013.1
20260830223049 85 315 3.0 4.0 0.00 0.00 0.00 59 1013.1
20260830222842 85 292 3.0 6.0 0.00 0.00 0.00 59 1013.0
20260830222441 85 292 3.0 4.0 0.00 0.00 0.00 59 1013.1
20260830222242 85 270 4.0 7.0 0.00 0.00 0.00 59 1013.0
20260830222046 85 292 4.0 7.0 0.00 0.00 0.00 59 1013.0
20260830221844 85 270 5.0 9.0 0.00 0.00 0.00 59 1013.0
20260830221643 85 292 4.0 8.0 0.00 0.00 0.00 59 1013.0
20260830221443 85 270 5.0 8.0 0.00 0.00 0.00 59 1013.1
20260830221242 85 292 6.0 9.0 0.00 0.00 0.00 58 1013.1
20260830221051 85 270 4.0 8.0 0.00 0.00 0.00 59 1012.8
20260830220842 85 270 5.0 9.0 0.00 0.00 0.00 59 1013.1
20260830220442 85 292 4.0 4.0 0.00 0.00 0.00 58 1013.1
20260830220242 85 270 4.0 8.0 0.00 0.00 0.00 58 1013.0
20260830220104 85 270 4.0 7.0 0.00 0.00 0.00 58 1012.9
20260830215842 86 292 4.0 7.0 0.00 0.00 0.00 58 1013.1
20260830215443 85 270 6.0 9.0 0.00 0.00 0.00 58 1013.1
20260830215241 85 248 4.0 8.0 0.00 0.00 0.00 58 1013.0
20260830215047 85 270 6.0 8.0 0.00 0.00 0.00 58 1012.9
20260830214842 85 292 6.0 8.0 0.00 0.00 0.00 58 1013.0
20260830214641 85 270 4.0 7.0 0.00 0.00 0.00 58 1013.1
20260830214443 86 270 4.0 6.0 0.00 0.00 0.00 58 1012.8
20260830214242 86 270 6.0 9.0 0.00 0.00 0.00 58 1013.0
20260830214050 86 270 4.0 8.0 0.00 0.00 0.00 58 1012.9
20260830213841 86 248 5.0 8.0 0.00 0.00 0.00 58 1012.9
20260830213642 86 270 8.0 14.0 0.00 0.00 0.00 58 1012.8
20260830213442 86 270 6.0 11.0 0.00 0.00 0.00 58 1013.0
20260830213243 86 292 5.0 8.0 0.00 0.00 0.00 58 1012.7
20260830213048 86 270 5.0 9.0 0.00 0.00 0.00 58 1012.8
20260830212642 86 270 4.0 8.0 0.00 0.00 0.00 59 1012.8
20260830212440 86 292 4.0 8.0 0.00 0.00 0.00 59 1012.9
20260830212243 86 292 6.0 9.0 0.00 0.00 0.00 59 1012.9
20260830212047 86 248 4.0 6.0 0.00 0.00 0.00 59 1012.8
20260830211842 86 270 4.0 7.0 0.00 0.00 0.00 59 1012.7
20260830211641 86 292 8.0 13.0 0.00 0.00 0.00 59 1012.8
20260830211441 86 270 8.0 11.0 0.00 0.00 0.00 59 1012.9
20260830211241 86 270 6.0 11.0 0.00 0.00 0.00 59 1012.8
20260830211049 86 270 5.0 9.0 0.00 0.00 0.00 59 1012.7
20260830210842 87 270 8.0 14.0 0.00 0.00 0.00 59 1012.9
20260830210643 86 270 8.0 11.0 0.00 0.00 0.00 59 1012.7
20260830210443 86 270 7.0 9.0 0.00 0.00 0.00 59 1012.9
20260830210242 87 270 8.0 11.0 0.00 0.00 0.00 59 1012.8
20260830210053 87 248 7.0 11.0 0.00 0.00 0.00 59 1012.9
20260830205843 87 270 5.0 9.0 0.00 0.00 0.00 59 1012.7
20260830205643 87 270 8.0 11.0 0.00 0.00 0.00 59 1012.8
20260830205442 87 270 10.0 13.0 0.00 0.00 0.00 58 1012.7
20260830205243 87 225 9.0 11.0 0.00 0.00 0.00 58 1013.0
20260830205045 87 270 5.0 7.0 0.00 0.00 0.00 59 1012.7
20260830204843 87 248 6.0 9.0 0.00 0.00 0.00 58 1012.8
20260830204642 87 248 8.0 13.0 0.00 0.00 0.00 58 1012.6
20260830204442 87 225 7.0 9.0 0.00 0.00 0.00 58 1012.5
20260830204050 87 270 6.0 8.0 0.00 0.00 0.00 58 1012.6
20260830203842 87 270 7.0 11.0 0.00 0.00 0.00 58 1012.7
20260830203642 87 270 6.0 8.0 0.00 0.00 0.00 58 1012.7
20260830203443 87 248 9.0 13.0 0.00 0.00 0.00 57 1012.6
20260830203243 87 270 10.0 15.0 0.00 0.00 0.00 57 1012.5
20260830203049 87 270 7.0 13.0 0.00 0.00 0.00 58 1012.5
20260830202643 87 270 9.0 11.0 0.00 0.00 0.00 57 1012.3
20260830202441 87 292 8.0 13.0 0.00 0.00 0.00 57 1012.3
20260830202242 87 248 8.0 13.0 0.00 0.00 0.00 58 1012.5
20260830202046 87 270 6.0 11.0 0.00 0.00 0.00 58 1012.5
20260830201843 87 270 8.0 11.0 0.00 0.00 0.00 57 1012.5
20260830201641 87 270 8.0 14.0 0.00 0.00 0.00 57 1012.6
20260830201442 87 270 7.0 9.0 0.00 0.00 0.00 58 1012.4
20260830201243 87 315 7.0 11.0 0.00 0.00 0.00 58 1012.4
20260830201049 87 248 8.0 11.0 0.00 0.00 0.00 58 1012.5
20260830200841 87 248 8.0 13.0 0.00 0.00 0.00 58 1012.4
20260830200643 87 270 7.0 11.0 0.00 0.00 0.00 58 1012.4
20260830200103 88 248 8.0 13.0 0.00 0.00 0.00 58 1012.4
20260830195842 88 248 6.0 8.0 0.00 0.00 0.00 58 1012.6
20260830195643 88 270 10.0 13.0 0.00 0.00 0.00 58 1012.5
20260830195442 88 248 9.0 13.0 0.00 0.00 0.00 58 1012.6
20260830195242 88 248 8.0 14.0 0.00 0.00 0.00 58 1012.4
20260830195046 88 225 8.0 13.0 0.00 0.00 0.00 58 1012.4
20260830194843 88 270 10.0 14.0 0.00 0.00 0.00 58 1012.3
20260830194242 88 270 8.0 9.0 0.00 0.00 0.00 58 1012.6
20260830194049 88 292 9.0 11.0 0.00 0.00 0.00 58 1012.3
20260830193842 88 248 7.0 11.0 0.00 0.00 0.00 58 1012.6
20260830193642 88 248 10.0 15.0 0.00 0.00 0.00 58 1012.2
20260830193242 88 292 8.0 11.0 0.00 0.00 0.00 58 1012.4
20260830193049 88 270 6.0 9.0 0.00 0.00 0.00 58 1012.5
20260830192841 88 292 7.0 11.0 0.00 0.00 0.00 58 1012.5
20260830192642 88 270 7.0 11.0 0.00 0.00 0.00 58 1012.3
20260830192441 88 225 8.0 11.0 0.00 0.00 0.00 58 1012.4
20260830192047 88 270 5.0 8.0 0.00 0.00 0.00 58 1012.5
20260830191642 88 292 5.0 8.0 0.00 0.00 0.00 58 1012.5
20260830191443 88 292 4.0 6.0 0.00 0.00 0.00 58 1012.5
20260830191243 88 270 2.0 4.0 0.00 0.00 0.00 58 1012.4
20260830191052 88 292 5.0 7.0 0.00 0.00 0.00 58 1012.4
20260830190842 88 270 4.0 4.0 0.00 0.00 0.00 58 1012.3
20260830190642 88 292 4.0 4.0 0.00 0.00 0.00 57 1012.4
20260830190442 88 270 4.0 6.0 0.00 0.00 0.00 57 1012.3
20260830190243 88 270 2.0 2.0 0.00 0.00 0.00 57 1012.3
20260830185844 88 292 2.0 2.0 0.00 0.00 0.00 57 1012.4
20260830185641 88 292 3.0 4.0 0.00 0.00 0.00 56 1012.3
20260830185242 88 315 2.0 4.0 0.00 0.00 0.00 57 1012.3
20260830184843 88 270 3.0 4.0 0.00 0.00 0.00 57 1012.1
20260830184643 88 338 2.0 2.0 0.00 0.00 0.00 56 1012.2
20260830184443 88 292 4.0 7.0 0.00 0.00 0.00 56 1012.2
20260830184242 88 315 2.0 4.0 0.00 0.00 0.00 56 1012.2
20260830184050 89 315 1.0 2.0 0.00 0.00 0.00 56 1012.2
20260830183843 89 292 3.0 6.0 0.00 0.00 0.00 55 1012.0
20260830183643 89 292 2.0 4.0 0.00 0.00 0.00 55 1012.1
20260830183442 89 292 3.0 6.0 0.00 0.00 0.00 55 1012.0
20260830183242 89 270 6.0 11.0 0.00 0.00 0.00 54 1011.8
20260830183049 89 292 5.0 8.0 0.00 0.00 0.00 54 1011.8
20260830182642 89 225 4.0 9.0 0.00 0.00 0.00 54 1011.8
20260830182442 89 270 6.0 9.0 0.00 0.00 0.00 54 1011.6
20260830182242 89 270 4.0 6.0 0.00 0.00 0.00 54 1011.6
20260830182047 89 248 4.0 7.0 0.00 0.00 0.00 54 1011.6
20260830181843 89 270 2.0 4.0 0.00 0.00 0.00 53 1011.6
20260830181643 89 248 4.0 7.0 0.00 0.00 0.00 53 1011.4
20260830181443 90 270 3.0 6.0 0.00 0.00 0.00 53 1011.5
20260830181051 90 248 4.0 8.0 0.00 0.00 0.00 53 1011.4
20260830180642 89 225 4.0 9.0 0.00 0.00 0.00 52 1011.6
20260830180243 90 248 2.0 4.0 0.00 0.00 0.00 52 1011.2
20260830180051 90 270 2.0 4.0 0.00 0.00 0.00 52 1011.4
20260830175643 90 270 4.0 8.0 0.00 0.00 0.00 50 1011.3
20260830175442 90 225 4.0 6.0 0.00 0.00 0.00 50 1011.3
20260830175242 90 225 4.0 7.0 0.00 0.00 0.00 50 1011.4
20260830175046 90 202 5.0 9.0 0.00 0.00 0.00 50 1011.3
20260830174843 91 180 4.0 8.0 0.00 0.00 0.00 49 1011.4
20260830174642 91 225 4.0 7.0 0.00 0.00 0.00 49 1011.3
20260830174442 91 225 4.0 6.0 0.00 0.00 0.00 49 1011.3
20260830174243 91 248 3.0 6.0 0.00 0.00 0.00 49 1011.3
20260830174049 91 180 4.0 4.0 0.00 0.00 0.00 49 1011.3
20260830173643 92 248 5.0 9.0 0.00 0.00 0.00 48 1011.1
20260830173442 92 270 5.0 8.0 0.00 0.00 0.00 48 1011.2
20260830173049 92 270 7.0 11.0 0.00 0.00 0.00 47 1011.1
20260830172843 92 292 8.0 11.0 0.00 0.00 0.00 47 1011.1
20260830172444 93 248 4.0 9.0 0.00 0.00 0.00 46 1011.1
20260830172243 93 225 8.0 15.0 0.00 0.00 0.00 46 1011.0
20260830171847 93 270 8.0 11.0 0.00 0.00 0.00 45 1011.1
20260830171643 93 248 10.0 16.0 0.00 0.00 0.00 45 1011.1
20260830171443 93 225 11.0 15.0 0.00 0.00 0.00 44 1011.1
20260830171243 93 292 8.0 13.0 0.00 0.00 0.00 44 1011.1
20260830170842 94 292 11.0 15.0 0.00 0.00 0.00 43 1010.9
20260830170443 94 292 6.0 11.0 0.00 0.00 0.00 43 1010.9
20260830170243 94 248 8.0 11.0 0.00 0.00 0.00 43 1010.9
20260830170053 94 248 7.0 11.0 0.00 0.00 0.00 43 1010.8
20260830165642 94 202 10.0 15.0 0.00 0.00 0.00 42 1010.8
20260830165443 94 270 8.0 11.0 0.00 0.00 0.00 42 1010.9
20260830165244 94 315 8.0 14.0 0.00 0.00 0.00 42 1010.8
20260830164843 94 270 6.0 11.0 0.00 0.00 0.00 42 1010.8
20260830164444 94 202 7.0 11.0 0.00 0.00 0.00 42 1010.8
20260830164257 94 158 8.0 13.0 0.00 0.00 0.00 42 1010.9
20260830164050 94 292 10.0 15.0 0.00 0.00 0.00 42 1010.9
20260830163843 93 270 8.0 13.0 0.00 0.00 0.00 44 1010.8
20260830163644 93 225 7.0 13.0 0.00 0.00 0.00 45 1010.8
20260830163442 93 248 4.0 6.0 0.00 0.00 0.00 50 1010.9
20260830163242 93 225 4.0 8.0 0.00 0.00 0.00 49 1010.8
20260830163049 92 202 5.0 9.0 0.00 0.00 0.00 50 1010.9
20260830162843 91 248 5.0 8.0 0.00 0.00 0.00 51 1011.0
20260830162643 91 270 3.0 4.0 0.00 0.00 0.00 59 1011.2
20260830162243 90 202 4.0 6.0 0.00 0.00 0.00 62 1011.1
20260830162047 90 90 4.0 7.0 0.00 0.00 0.00 61 1011.3
20260830161843 91 158 4.0 7.0 0.00 0.00 0.00 61 1011.2
20260830161643 91 202 4.0 7.0 0.00 0.00 0.00 60 1011.2
20260830161443 91 202 2.0 4.0 0.00 0.00 0.00 60 1011.2
20260830161243 91 180 4.0 6.0 0.00 0.00 0.00 60 1011.4
20260830161054 91 180 3.0 4.0 0.00 0.00 0.00 61 1011.3
20260830160843 91 202 2.0 4.0 0.00 0.00 0.00 60 1011.4
20260830160643 91 158 3.0 4.0 0.00 0.00 0.00 60 1011.3
20260830160443 90 180 2.0 4.0 0.00 0.00 0.00 61 1011.2
20260830160243 90 135 4.0 6.0 0.00 0.00 0.00 61 1011.4
20260830160052 90 158 4.0 7.0 0.00 0.00 0.00 61 1011.5
20260830155841 91 135 4.0 8.0 0.00 0.00 0.00 61 1011.4
20260830155642 91 180 4.0 6.0 0.00 0.00 0.00 61 1011.5
20260830155443 90 112 4.0 7.0 0.00 0.00 0.00 62 1011.6
20260830155045 90 112 4.0 7.0 0.00 0.00 0.00 61 1011.8
20260830154843 91 158 4.0 7.0 0.00 0.00 0.00 61 1011.7
20260830154644 91 158 4.0 6.0 0.00 0.00 0.00 60 1011.8
20260830154443 91 158 5.0 8.0 0.00 0.00 0.00 60 1011.6
20260830154243 91 135 4.0 6.0 0.00 0.00 0.00 59 1011.8
20260830154052 91 112 4.0 7.0 0.00 0.00 0.00 59 1011.9
20260830153843 91 158 3.0 4.0 0.00 0.00 0.00 59 1011.8
20260830153642 91 135 5.0 9.0 0.00 0.00 0.00 60 1011.9
20260830153443 91 135 4.0 6.0 0.00 0.00 0.00 59 1011.8
20260830153243 91 158 4.0 7.0 0.00 0.00 0.00 58 1011.7
20260830153049 91 112 5.0 8.0 0.00 0.00 0.00 58 1011.8
20260830152843 91 158 5.0 8.0 0.00 0.00 0.00 58 1011.8
20260830152641 91 112 4.0 7.0 0.00 0.00 0.00 57 1011.7
20260830152443 91 158 4.0 8.0 0.00 0.00 0.00 57 1011.8
20260830152242 91 202 4.0 7.0 0.00 0.00 0.00 56 1011.8
20260830152046 91 112 5.0 9.0 0.00 0.00 0.00 57 1011.8
20260830151842 91 90 7.0 11.0 0.00 0.00 0.00 58 1011.7
20260830151643 91 202 7.0 9.0 0.00 0.00 0.00 57 1012.0
20260830151443 91 135 4.0 8.0 0.00 0.00 0.00 56 1011.7
20260830151242 91 112 4.0 8.0 0.00 0.00 0.00 57 1011.8
20260830151050 91 135 5.0 7.0 0.00 0.00 0.00 57 1011.9
20260830150843 91 45 5.0 7.0 0.00 0.00 0.00 57 1012.0
20260830150642 91 112 6.0 11.0 0.00 0.00 0.00 56 1011.9
20260830150241 91 112 5.0 8.0 0.00 0.00 0.00 55 1011.8
20260830145845 92 68 7.0 11.0 0.00 0.00 0.00 55 1011.8
20260830145643 92 135 5.0 8.0 0.00 0.00 0.00 54 1011.9
20260830145243 92 202 4.0 8.0 0.00 0.00 0.00 54 1012.0
20260830145046 92 180 7.0 9.0 0.00 0.00 0.00 53 1011.8
20260830144443 92 112 7.0 11.0 0.00 0.00 0.00 52 1011.9
20260830144049 93 158 6.0 8.0 0.00 0.00 0.00 51 1011.7
20260830143843 92 158 4.0 9.0 0.00 0.00 0.00 51 1011.9
20260830143643 92 135 6.0 8.0 0.00 0.00 0.00 53 1012.0
20260830143445 92 158 8.0 11.0 0.00 0.00 0.00 54 1012.1
20260830143241 92 158 8.0 11.0 0.00 0.00 0.00 53 1011.9
20260830143050 92 202 8.0 13.0 0.00 0.00 0.00 53 1012.0
20260830142643 92 112 6.0 13.0 0.00 0.00 0.00 53 1011.8
20260830142443 92 135 8.0 13.0 0.00 0.00 0.00 54 1011.9
20260830142241 92 112 4.0 11.0 0.00 0.00 0.00 54 1012.0
20260830141842 93 68 8.0 13.0 0.00 0.00 0.00 53 1012.1
20260830141646 93 158 4.0 6.0 0.00 0.00 0.00 54 1012.2
20260830141444 93 135 7.0 11.0 0.00 0.00 0.00 53 1012.1
20260830141243 93 112 6.0 9.0 0.00 0.00 0.00 51 1012.0
20260830141050 92 180 4.0 7.0 0.00 0.00 0.00 52 1012.0
20260830140843 93 112 8.0 13.0 0.00 0.00 0.00 53 1012.2
20260830140241 93 225 6.0 11.0 0.00 0.00 0.00 51 1012.2
20260830140051 92 135 4.0 7.0 0.00 0.00 0.00 51 1012.3
20260830135843 92 112 7.0 11.0 0.00 0.00 0.00 53 1012.4
20260830135642 92 135 7.0 9.0 0.00 0.00 0.00 52 1012.4
20260830135443 92 112 4.0 7.0 0.00 0.00 0.00 51 1012.3
20260830135244 93 158 8.0 14.0 0.00 0.00 0.00 51 1012.4
20260830135047 93 180 7.0 11.0 0.00 0.00 0.00 51 1012.4
20260830134643 94 135 4.0 6.0 0.00 0.00 0.00 51 1012.3
20260830134444 94 158 5.0 8.0 0.00 0.00 0.00 49 1012.5
20260830134242 93 225 5.0 8.0 0.00 0.00 0.00 49 1012.4
20260830134052 93 202 8.0 11.0 0.00 0.00 0.00 49 1012.4
20260830133643 93 180 7.0 11.0 0.00 0.00 0.00 48 1012.6
20260830133448 94 135 6.0 8.0 0.00 0.00 0.00 48 1012.4
20260830133048 94 112 6.0 9.0 0.00 0.00 0.00 45 1012.3
20260830132648 94 158 4.0 9.0 0.00 0.00 0.00 44 1012.6
20260830132442 94 158 6.0 11.0 0.00 0.00 0.00 43 1012.5
20260830132242 94 180 7.0 11.0 0.00 0.00 0.00 40 1012.5
20260830132047 94 180 7.0 11.0 0.00 0.00 0.00 43 1012.5
20260830131643 94 158 6.0 11.0 0.00 0.00 0.00 45 1012.5
20260830131444 94 158 8.0 11.0 0.00 0.00 0.00 45 1012.6
20260830131244 94 180 6.0 11.0 0.00 0.00 0.00 45 1012.5
20260830131049 94 90 8.0 13.0 0.00 0.00 0.00 45 1012.8
20260830130843 94 158 8.0 11.0 0.00 0.00 0.00 44 1012.8
20260830130643 94 112 7.0 9.0 0.00 0.00 0.00 43 1012.6
20260830130442 94 180 6.0 9.0 0.00 0.00 0.00 45 1012.6
20260830130245 94 135 7.0 11.0 0.00 0.00 0.00 45 1012.8
20260830130055 94 112 4.0 7.0 0.00 0.00 0.00 45 1012.8
20260830125843 94 135 4.0 8.0 0.00 0.00 0.00 42 1012.8
20260830125642 94 112 8.0 11.0 0.00 0.00 0.00 42 1012.9
20260830125243 95 338 5.0 8.0 0.00 0.00 0.00 41 1012.9
20260830125047 94 158 5.0 8.0 0.00 0.00 0.00 39 1013.0
20260830124843 94 135 4.0 8.0 0.00 0.00 0.00 43 1012.8
20260830124642 94 90 7.0 9.0 0.00 0.00 0.00 42 1012.9
20260830124443 94 112 5.0 8.0 0.00 0.00 0.00 43 1012.9
20260830124243 94 158 6.0 11.0 0.00 0.00 0.00 43 1012.9
20260830124052 93 112 4.0 6.0 0.00 0.00 0.00 45 1012.8
20260830123242 94 158 9.0 15.0 0.00 0.00 0.00 41 1012.8
20260830123054 94 202 7.0 11.0 0.00 0.00 0.00 41 1013.0
20260830122843 94 135 7.0 11.0 0.00 0.00 0.00 41 1012.8
20260830122643 94 135 6.0 11.0 0.00 0.00 0.00 43 1013.1
20260830122445 94 135 4.0 8.0 0.00 0.00 0.00 42 1013.1
20260830122243 94 180 6.0 13.0 0.00 0.00 0.00 44 1012.9
20260830122046 94 112 7.0 11.0 0.00 0.00 0.00 44 1013.1
20260830121844 94 135 4.0 8.0 0.00 0.00 0.00 43 1013.3
20260830121643 94 112 8.0 11.0 0.00 0.00 0.00 43 1013.1
20260830121443 95 112 6.0 11.0 0.00 0.00 0.00 43 1013.2
20260830121243 95 292 6.0 11.0 0.00 0.00 0.00 42 1013.1
20260830121050 95 158 6.0 8.0 0.00 0.00 0.00 41 1013.1
20260830120843 94 90 6.0 9.0 0.00 0.00 0.00 41 1013.1
20260830120644 95 112 7.0 11.0 0.00 0.00 0.00 41 1013.3
20260830120444 95 158 5.0 8.0 0.00 0.00 0.00 40 1013.2
20260830120242 94 180 4.0 8.0 0.00 0.00 0.00 42 1013.4
20260830120051 93 90 7.0 11.0 0.00 0.00 0.00 40 1013.2
20260830115843 94 112 8.0 11.0 0.00 0.00 0.00 46 1013.2
20260830115645 94 135 6.0 8.0 0.00 0.00 0.00 45 1013.0
20260830115444 94 112 7.0 11.0 0.00 0.00 0.00 45 1013.2
20260830115243 96 180 10.0 13.0 0.00 0.00 0.00 47 1013.1
20260830115047 96 180 4.0 6.0 0.00 0.00 0.00 43 1013.2
20260830114843 94 158 4.0 8.0 0.00 0.00 0.00 45 1013.2
20260830114644 94 112 4.0 8.0 0.00 0.00 0.00 48 1013.3
20260830114444 94 135 4.0 6.0 0.00 0.00 0.00 47 1013.3
20260830114242 93 135 7.0 11.0 0.00 0.00 0.00 48 1013.2
20260830114054 95 112 8.0 11.0 0.00 0.00 0.00 47 1013.2
20260830113842 94 22 4.0 7.0 0.00 0.00 0.00 47 1013.4
20260830113643 94 202 7.0 11.0 0.00 0.00 0.00 45 1013.4
20260830113443 95 135 4.0 7.0 0.00 0.00 0.00 48 1013.2
20260830113243 94 158 4.0 7.0 0.00 0.00 0.00 46 1013.3
20260830113049 94 158 4.0 7.0 0.00 0.00 0.00 45 1013.4
20260830112843 94 90 5.0 11.0 0.00 0.00 0.00 47 1013.5
20260830112443 94 112 4.0 6.0 0.00 0.00 0.00 47 1013.4
20260830112242 94 158 6.0 9.0 0.00 0.00 0.00 48 1013.5
20260830112045 94 180 4.0 7.0 0.00 0.00 0.00 47 1013.5
20260830111840 94 180 4.0 7.0 0.00 0.00 0.00 46 1013.6
20260830111642 95 112 4.0 8.0 0.00 0.00 0.00 44 1013.4
20260830111443 95 135 3.0 4.0 0.00 0.00 0.00 44 1013.6
20260830111242 95 225 4.0 7.0 0.00 0.00 0.00 45 1013.7
20260830111050 94 158 4.0 8.0 0.00 0.00 0.00 42 1013.6
20260830110843 94 90 2.0 6.0 0.00 0.00 0.00 44 1013.7
20260830110643 94 112 8.0 13.0 0.00 0.00 0.00 43 1013.6
20260830110442 94 135 7.0 11.0 0.00 0.00 0.00 43 1013.7
20260830110242 94 158 5.0 8.0 0.00 0.00 0.00 42 1013.5
20260830110050 95 135 6.0 11.0 0.00 0.00 0.00 42 1013.7
20260830105843 96 158 4.0 7.0 0.00 0.00 0.00 41 1013.7
20260830105643 95 135 6.0 9.0 0.00 0.00 0.00 41 1013.5
20260830105443 96 158 5.0 9.0 0.00 0.00 0.00 41 1013.7
20260830105242 95 158 6.0 9.0 0.00 0.00 0.00 39 1013.8
20260830105046 94 135 4.0 7.0 0.00 0.00 0.00 40 1013.8
20260830104841 94 112 6.0 9.0 0.00 0.00 0.00 44 1013.8
20260830104642 95 158 5.0 11.0 0.00 0.00 0.00 40 1013.8
20260830104442 95 135 8.0 11.0 0.00 0.00 0.00 41 1013.7
20260830104050 96 158 5.0 8.0 0.00 0.00 0.00 36 1013.9
20260830103842 95 158 4.0 6.0 0.00 0.00 0.00 38 1014.0
20260830103641 95 158 5.0 9.0 0.00 0.00 0.00 39 1013.9
20260830103442 95 202 3.0 6.0 0.00 0.00 0.00 38 1013.8
20260830103242 96 135 5.0 7.0 0.00 0.00 0.00 37 1013.9
20260830102842 96 135 5.0 11.0 0.00 0.00 0.00 36 1014.0
20260830102642 96 270 4.0 7.0 0.00 0.00 0.00 35 1013.9
20260830102442 96 135 8.0 11.0 0.00 0.00 0.00 35 1014.0
20260830102242 96 158 6.0 11.0 0.00 0.00 0.00 34 1014.1
20260830101842 96 112 4.0 7.0 0.00 0.00 0.00 34 1014.1
20260830101642 96 158 5.0 9.0 0.00 0.00 0.00 34 1013.9
20260830101243 97 180 5.0 7.0 0.00 0.00 0.00 33 1014.2
20260830101056 96 68 4.0 4.0 0.00 0.00 0.00 33 1014.0
20260830100842 96 112 5.0 8.0 0.00 0.00 0.00 34 1014.2
20260830100644 96 158 3.0 6.0 0.00 0.00 0.00 35 1014.1
20260830100449 95 135 3.0 4.0 0.00 0.00 0.00 36 1014.4
20260830100244 95 158 4.0 6.0 0.00 0.00 0.00 34 1014.2
20260830100056 95 112 5.0 7.0 0.00 0.00 0.00 35 1014.3
20260830095643 95 202 4.0 9.0 0.00 0.00 0.00 34 1014.4
20260830095046 96 135 3.0 4.0 0.00 0.00 0.00 33 1014.5
20260830094643 96 135 4.0 6.0 0.00 0.00 0.00 33 1014.5
20260830094443 95 112 4.0 6.0 0.00 0.00 0.00 33 1014.4
20260830094244 96 202 3.0 4.0 0.00 0.00 0.00 33 1014.5
20260830094049 96 180 5.0 9.0 0.00 0.00 0.00 33 1014.5
20260830093844 95 158 2.0 6.0 0.00 0.00 0.00 34 1014.6
20260830093643 95 90 3.0 6.0 0.00 0.00 0.00 33 1014.6
20260830093243 95 112 4.0 6.0 0.00 0.00 0.00 33 1014.7
20260830093048 95 112 3.0 4.0 0.00 0.00 0.00 35 1014.6
20260830092843 95 135 5.0 7.0 0.00 0.00 0.00 35 1014.9
20260830092643 96 135 3.0 4.0 0.00 0.00 0.00 35 1014.7
20260830092443 95 135 4.0 4.0 0.00 0.00 0.00 35 1014.5
20260830092243 95 112 4.0 6.0 0.00 0.00 0.00 35 1014.8
20260830092045 95 112 5.0 7.0 0.00 0.00 0.00 34 1014.8
20260830091843 95 90 4.0 6.0 0.00 0.00 0.00 35 1015.0
20260830091643 95 135 4.0 4.0 0.00 0.00 0.00 36 1014.9
20260830091442 95 112 4.0 7.0 0.00 0.00 0.00 35 1015.0
20260830091242 94 180 2.0 4.0 0.00 0.00 0.00 34 1014.7
20260830091049 94 112 5.0 8.0 0.00 0.00 0.00 35 1014.8
20260830090842 94 112 5.0 8.0 0.00 0.00 0.00 35 1015.0
20260830090642 94 68 2.0 4.0 0.00 0.00 0.00 36 1014.9
20260830090442 94 68 3.0 4.0 0.00 0.00 0.00 36 1014.9
20260830090050 95 90 3.0 6.0 0.00 0.00 0.00 37 1015.0
20260830085845 96 248 2.0 4.0 0.00 0.00 0.00 37 1014.7
20260830085643 95 180 2.0 7.0 0.00 0.00 0.00 36 1014.9
20260830085443 95 158 3.0 4.0 0.00 0.00 0.00 38 1014.9
20260830085242 94 158 4.0 6.0 0.00 0.00 0.00 38 1014.9
20260830085046 93 180 3.0 6.0 0.00 0.00 0.00 39 1015.0
20260830084842 93 135 2.0 4.0 0.00 0.00 0.00 40 1014.9
20260830084444 94 225 2.0 4.0 0.00 0.00 0.00 38 1015.0
20260830084243 94 202 3.0 4.0 0.00 0.00 0.00 38 1015.0
20260830083843 93 202 3.0 4.0 0.00 0.00 0.00 40 1014.9
20260830083643 93 180 3.0 4.0 0.00 0.00 0.00 40 1015.0
20260830083443 92 180 2.0 2.0 0.00 0.00 0.00 41 1015.1
20260830083244 92 180 2.0 4.0 0.00 0.00 0.00 41 1015.0
20260830083049 92 112 3.0 4.0 0.00 0.00 0.00 40 1014.9
20260830082842 92 158 2.0 4.0 0.00 0.00 0.00 41 1015.0
20260830082643 92 158 3.0 4.0 0.00 0.00 0.00 43 1014.9
20260830082442 92 135 2.0 4.0 0.00 0.00 0.00 44 1015.0
20260830082242 92 112 2.0 4.0 0.00 0.00 0.00 44 1015.0
20260830082047 92 225 2.0 4.0 0.00 0.00 0.00 44 1015.1
20260830081843 92 135 2.0 4.0 0.00 0.00 0.00 44 1015.1
20260830081643 93 135 4.0 6.0 0.00 0.00 0.00 43 1015.0
20260830081442 93 90 2.0 2.0 0.00 0.00 0.00 42 1015.0
20260830081241 92 135 2.0 2.0 0.00 0.00 0.00 42 1015.0
20260830081048 92 45 3.0 6.0 0.00 0.00 0.00 42 1015.1
20260830080842 92 112 2.0 4.0 0.00 0.00 0.00 42 1014.9
20260830080640 92 90 3.0 4.0 0.00 0.00 0.00 42 1015.1
20260830080443 92 90 1.0 2.0 0.00 0.00 0.00 42 1015.1
20260830080241 91 180 2.0 2.0 0.00 0.00 0.00 43 1014.9
20260830080057 91 135 2.0 4.0 0.00 0.00 0.00 44 1015.2
20260830075843 91 135 2.0 4.0 0.00 0.00 0.00 43 1015.1
20260830075641 92 202 4.0 6.0 0.00 0.00 0.00 43 1014.9
20260830075443 92 112 2.0 6.0 0.00 0.00 0.00 42 1014.9
20260830074843 91 158 4.0 6.0 0.00 0.00 0.00 44 1014.9
20260830074642 91 90 1.0 2.0 0.00 0.00 0.00 43 1015.1
20260830074442 92 112 2.0 4.0 0.00 0.00 0.00 44 1015.1
20260830074050 92 292 0.0 0.0 0.00 0.00 0.00 42 1015.1
20260830073843 91 225 2.0 2.0 0.00 0.00 0.00 43 1015.2
20260830073642 91 202 3.0 4.0 0.00 0.00 0.00 44 1015.0
20260830073442 91 225 1.0 2.0 0.00 0.00 0.00 43 1015.0
20260830072942 90 180 3.0 4.0 0.00 0.00 0.00 43 1015.0
20260830072742 90 158 2.0 4.0 0.00 0.00 0.00 44 1015.0
20260830072548 90 158 2.0 4.0 0.00 0.00 0.00 43 1014.9
20260830072344 90 158 2.0 4.0 0.00 0.00 0.00 43 1014.7
20260830071941 91 180 2.0 2.0 0.00 0.00 0.00 43 1014.7
20260830071343 89 270 1.0 2.0 0.00 0.00 0.00 44 1014.7
20260830071144 89 292 2.0 2.0 0.00 0.00 0.00 44 1014.8
20260830070944 89 270 2.0 4.0 0.00 0.00 0.00 44 1014.7
20260830070743 89 248 2.0 4.0 0.00 0.00 0.00 44 1014.8
20260830070545 89 225 2.0 4.0 0.00 0.00 0.00 43 1014.7
20260830070343 90 248 2.0 4.0 0.00 0.00 0.00 43 1014.9
20260830065943 90 158 2.0 2.0 0.00 0.00 0.00 42 1014.8
20260830065550 89 202 2.0 2.0 0.00 0.00 0.00 43 1014.6
20260830065342 88 270 0.0 0.0 0.00 0.00 0.00 44 1014.5
20260830065143 87 270 0.0 2.0 0.00 0.00 0.00 45 1014.6
20260830064942 87 270 0.0 2.0 0.00 0.00 0.00 45 1014.6
20260830064549 85 248 3.0 4.0 0.00 0.00 0.00 47 1014.7
20260830064342 85 248 2.0 4.0 0.00 0.00 0.00 47 1014.6
20260830063945 84 270 2.0 4.0 0.00 0.00 0.00 47 1014.7
20260830063742 84 248 1.0 2.0 0.00 0.00 0.00 49 1014.5
20260830063555 85 248 2.0 4.0 0.00 0.00 0.00 49 1014.6
20260830063343 85 225 2.0 2.0 0.00 0.00 0.00 48 1014.8
20260830063143 85 270 2.0 4.0 0.00 0.00 0.00 47 1014.7
20260830062742 85 135 1.0 2.0 0.00 0.00 0.00 48 1014.5
20260830062549 84 248 0.0 2.0 0.00 0.00 0.00 49 1014.6
20260830062342 84 180 1.0 2.0 0.00 0.00 0.00 50 1014.6
20260830062144 84 202 2.0 2.0 0.00 0.00 0.00 50 1014.7
20260830061942 83 248 0.0 2.0 0.00 0.00 0.00 51 1014.4
20260830061742 82 248 2.0 4.0 0.00 0.00 0.00 53 1014.5
20260830061549 82 180 3.0 4.0 0.00 0.00 0.00 53 1014.6
20260830061342 82 158 2.0 4.0 0.00 0.00 0.00 53 1014.4
20260830061144 81 202 2.0 2.0 0.00 0.00 0.00 54 1014.5
20260830060945 80 270 2.0 2.0 0.00 0.00 0.00 55 1014.7
20260830060342 80 22 1.0 2.0 0.00 0.00 0.00 58 1014.7
20260830060143 80 270 2.0 4.0 0.00 0.00 0.00 55 1014.9
20260830055943 80 270 2.0 4.0 0.00 0.00 0.00 55 1014.9
20260830055742 81 270 2.0 2.0 0.00 0.00 0.00 54 1014.6
20260830055549 82 270 2.0 2.0 0.00 0.00 0.00 54 1014.5
20260830055342 82 292 2.0 4.0 0.00 0.00 0.00 51 1014.6
20260830055142 82 292 2.0 2.0 0.00 0.00 0.00 50 1014.7
20260830054942 81 292 4.0 6.0 0.00 0.00 0.00 49 1014.7
20260830054741 81 292 3.0 4.0 0.00 0.00 0.00 50 1014.8
20260830054024 81 270 1.0 2.0 0.00 0.00 0.00 54 1015.0
20260830053743 80 248 1.0 2.0 0.00 0.00 0.00 54 1015.0
20260830053545 80 270 1.0 2.0 0.00 0.00 0.00 55 1014.9
20260830053342 79 248 2.0 4.0 0.00 0.00 0.00 54 1015.2
20260830052743 78 248 2.0 2.0 0.00 0.00 0.00 55 1015.1
20260830052548 79 315 2.0 4.0 0.00 0.00 0.00 55 1015.0
20260830052142 78 292 3.0 4.0 0.00 0.00 0.00 54 1014.9
20260830051744 79 270 2.0 2.0 0.00 0.00 0.00 56 1014.9
20260830051548 79 292 2.0 2.0 0.00 0.00 0.00 55 1014.8
20260830051342 79 270 0.0 0.0 0.00 0.00 0.00 55 1014.7
20260830051142 79 292 0.0 0.0 0.00 0.00 0.00 53 1014.6
20260830050944 79 292 0.0 0.0 0.00 0.00 0.00 54 1014.7
20260830050743 79 315 0.0 0.0 0.00 0.00 0.00 53 1014.6
20260830050544 78 315 1.0 2.0 0.00 0.00 0.00 53 1014.8
20260830050143 78 292 0.0 2.0 0.00 0.00 0.00 52 1014.8
20260830045943 78 315 1.0 2.0 0.00 0.00 0.00 52 1014.5
20260830045741 78 315 1.0 2.0 0.00 0.00 0.00 52 1014.8
20260830045550 78 292 1.0 2.0 0.00 0.00 0.00 52 1014.9
20260830045344 78 315 2.0 4.0 0.00 0.00 0.00 52 1014.9
20260830045142 78 315 2.0 2.0 0.00 0.00 0.00 52 1014.8
20260830044943 78 315 2.0 4.0 0.00 0.00 0.00 52 1014.9
20260830044741 77 315 1.0 2.0 0.00 0.00 0.00 52 1014.9
20260830044154 77 292 2.0 2.0 0.00 0.00 0.00 52 1014.9
20260830043946 76 292 4.0 4.0 0.00 0.00 0.00 53 1014.9
20260830043741 76 315 2.0 4.0 0.00 0.00 0.00 54 1014.9
20260830043545 76 292 2.0 4.0 0.00 0.00 0.00 55 1015.0
20260830043343 76 270 2.0 4.0 0.00 0.00 0.00 55 1014.9
20260830042943 76 315 2.0 2.0 0.00 0.00 0.00 55 1015.0
20260830042742 76 315 2.0 2.0 0.00 0.00 0.00 55 1015.0
20260830042549 76 315 1.0 2.0 0.00 0.00 0.00 55 1015.2
20260830042142 76 315 2.0 2.0 0.00 0.00 0.00 53 1014.9
20260830041943 76 292 1.0 2.0 0.00 0.00 0.00 54 1014.9
20260830041742 76 315 1.0 2.0 0.00 0.00 0.00 54 1014.8
20260830041548 76 315 2.0 2.0 0.00 0.00 0.00 54 1015.0
20260830041359 76 292 2.0 2.0 0.00 0.00 0.00 54 1015.0
20260830041145 76 292 2.0 2.0 0.00 0.00 0.00 54 1015.1
20260830040944 76 315 2.0 4.0 0.00 0.00 0.00 54 1014.9
20260830040546 75 315 2.0 4.0 0.00 0.00 0.00 55 1014.9
20260830040342 75 292 2.0 2.0 0.00 0.00 0.00 56 1014.9
20260830040143 75 315 2.0 2.0 0.00 0.00 0.00 56 1015.0
20260830035942 75 292 2.0 2.0 0.00 0.00 0.00 55 1015.0
20260830035744 76 292 2.0 2.0 0.00 0.00 0.00 55 1015.1
20260830035551 76 292 0.0 2.0 0.00 0.00 0.00 56 1015.0
20260830035341 76 315 2.0 2.0 0.00 0.00 0.00 56 1015.0
20260830035142 76 315 1.0 2.0 0.00 0.00 0.00 55 1014.9
20260830034942 76 315 0.0 2.0 0.00 0.00 0.00 55 1014.8
20260830034742 76 315 0.0 2.0 0.00 0.00 0.00 55 1015.0
20260830034548 76 315 0.0 2.0 0.00 0.00 0.00 55 1015.0
20260830034341 76 315 1.0 2.0 0.00 0.00 0.00 54 1014.9
20260830034144 76 315 0.0 0.0 0.00 0.00 0.00 55 1015.0
20260830033945 76 315 0.0 0.0 0.00 0.00 0.00 54 1015.0
20260830033741 77 315 0.0 0.0 0.00 0.00 0.00 54 1015.0
20260830033545 77 315 0.0 2.0 0.00 0.00 0.00 53 1015.1
20260830033341 77 315 2.0 2.0 0.00 0.00 0.00 53 1015.1
20260830033143 77 292 1.0 2.0 0.00 0.00 0.00 52 1015.2
20260830032943 77 315 1.0 2.0 0.00 0.00 0.00 52 1015.1
20260830032742 78 315 2.0 2.0 0.00 0.00 0.00 52 1015.1
20260830032551 78 315 2.0 2.0 0.00 0.00 0.00 51 1014.9
20260830032341 78 292 1.0 2.0 0.00 0.00 0.00 51 1015.0
20260830032143 78 315 0.0 2.0 0.00 0.00 0.00 51 1015.0
20260830031742 77 315 0.0 0.0 0.00 0.00 0.00 51 1015.0
20260830031547 77 292 0.0 0.0 0.00 0.00 0.00 51 1015.0
20260830031342 78 315 0.0 2.0 0.00 0.00 0.00 51 1015.1
20260830031144 78 292 1.0 2.0 0.00 0.00 0.00 51 1015.0